Location: Del Amo
(33.8464°N, 118.2104°W)
Time: 02:48:16
(UTC+00:00)

SR - Pass Details

Date: 28 September 2024
Orbit: 578 x 855 km, 66.7° (Epoch: 06 October)

Event Time Altitude Azimuth Distance (km) Brightness Sun altitude
Rises 18:37:47 0° 252° (WSW) 2,794 ? 50.6°
Reaches altitude 10° 18:41:10 10° 281° (W) 1,888 ? 50.9°
Maximum altitude 18:43:07 13° 309° (NW) 1,708 ? 51.1°
Drops below altitude 10° 18:45:05 10° 337° (NNW) 1,899 ? 51.2°
Sets 18:48:31 0° 6° (N) 2,826 ? 51.5°
